Location: C�mpuri de-Sus
(45.9500°N, 22.5500°E)
Time: 03:38:34
(UTC+00:00)

Cosmos 2333 Rocket - Pass Details

Date: 24 October 2021
Orbit: 837 x 865 km, 70.8° (Epoch: 30 November)

Event Time Altitude Azimuth Distance (km) Brightness Sun altitude
Rises 18:21:04 0° 212° (SSW) 3,385 5.5 -30.5°
Reaches altitude 10° 18:23:31 10° 215° (SW) 2,458 4.8 -30.9°
Enters shadow 18:27:34 47° 233° (SW) 1,109 2.9 -31.6°
